Overview Statistics Trail Chart Weather Telemetry Raw packets
 

This is the latest recevied weather packets stored in our database for station/object W6MAF. If no packets are shown the sender has not sent any weather packets the latest 10 day(s).

<< 20 21 22 23 24 25 26 >>
Time Temp. Humidity Pressure Rain* Wind** Luminosity Snow
1788533095 13.89° C 79% - 0 mm 0.45 m/s, 207° - -
1788532797 13.33° C 82% - 0 mm 2.68 m/s, 231° - -
1788532500 13.33° C 86% - 0 mm 5.36 m/s, 246° - -
1788532202 12.78° C 90% - 0 mm 5.81 m/s, 201° - -
1788531901 12.78° C 91% - 0 mm 4.92 m/s, 222° - -
1788531602 12.78° C 92% - 0 mm 5.36 m/s, 231° - -
1788531304 12.78° C 93% - 0 mm 6.71 m/s, 203° - -
1788531007 12.22° C 93% - 0 mm 4.92 m/s, 232° - -
1788530709 12.22° C 93% - 0 mm 4.02 m/s, 231° - -
1788530411 12.22° C 93% - 0 mm 6.26 m/s, 226° - -
1788530111 12.22° C 93% - 0 mm 6.26 m/s, 257° - -
1788529515 12.22° C 93% - 0 mm 5.81 m/s, 217° - -
1788529218 12.22° C 92% - 0 mm 5.36 m/s, 243° - -
1788528920 12.22° C 91% - 0 mm 5.81 m/s, 225° - -
1788528623 12.22° C 91% - 0 mm 4.02 m/s, 211° - -
1788528321 12.22° C 90% - 0 mm 5.81 m/s, 231° - -
1788528024 12.22° C 90% - 0 mm 5.36 m/s, 217° - -
1788527752 12.22° C 88% - 0 mm 6.26 m/s, 221° - -
1788527428 12.22° C 88% - 0 mm 4.47 m/s, 232° - -
1788527130 12.22° C 87% - 0 mm 4.92 m/s, 229° - -
1788526833 12.22° C 86% - 0 mm 6.26 m/s, 207° - -
1788526532 12.22° C 85% - 0 mm 5.81 m/s, 235° - -
1788526234 12.22° C 84% - 0 mm 6.26 m/s, 224° - -
1788525936 12.22° C 84% - 0 mm 5.36 m/s, 200° - -
1788525639 12.22° C 83% - 0 mm 5.81 m/s, 198° - -

* Rain latest hour (hover to see other rain measurements)
** Current wind speed in m/s (hover to see current wind gust speed)